www.pogodaiklimat.ru

Погода и климат >> Архив погоды >> Россия >> Хабаровский край >> Нижнетамбовское


ПОГОДА в Нижнетамбовском

  • Прогноз погоды в Нижнетамбовском
  • Монитор погоды в Нижнетамбовском

АРХИВ ПОГОДЫ в Нижнетамбовском

Время (UTC), дата Ветер
(напр.,м/с)
 
Видим.   Явления Облачность Т
(С)
Тd
(С)
f
(%)
Тe
(С)
Тes
(С)
Комфортность P
(гПа)
Po
(гПа)
Тmin
(С)
Tmax
(С)
R
(мм)
R24
(мм)
S
(см)
12 9.09 штиль 0 50 км {ливн. осадки} 8/5 600 м
[Cb cap Ac trans]
+13.7 +13.3 97 +13 +13 1003.2 1000.3
15 9.09 СЗ 1 50 км 10 баллов +12.4 +11.9 97 +12 +12 1003.4 1001.3
18 9.09 ЮВ 1 50 км 10 баллов +11.9 +11.4 97 +12 +12 1004.9 1002.7
21 9.09 штиль 0 20 км 10 баллов +12.1 +11.6 97 +11 +11 1006.2 1004.0 +11.6 7
00 10.09 З 2 50 км 8/4 600 м
[Cb cap Ci fib]
+15.1 +10.5 74 +15 +18 1008.5 1005.6 +11.6
03 10.09 В 1 20 км в посл. час ливневой дождь 7 баллов +13.1 +11.7 91 +13 +17 1011.5 1009.3
06 10.09 Ю 2 50 км в посл. час ливневой дождь 7 баллов +15.1 +11.7 80 +15 +16 1012.8 1010.7
09 10.09 З 1 50 км 2 балла +15.2 +10.0 71 +16 +16 1014.2 1012.0 +16.3 0.6
12 10.09 З 1 50 км 1 балл +9.8 +9.0 95 +9 +9 1015.5 1013.3
15 10.09 ЮВ 1 50 км 2 балла +6.2 +5.8 97 +5 +5 1016.9 1014.7
18 10.09 ЮВ 1 50 км местами туман поземный 4 балла +5.6 +5.2 97 +4 +4 1016.9 1014.7
21 10.09 ЮВ 1 500 м туман н/о +7.3 +6.9 97 +6 1016.9 1014.7 +4.8
00 11.09 штиль 0 50 км {туман} 10/8 600 м
[Cb cap Ac As]
+11.5 +10.6 94 +11 +11 1016.6 1013.7
03 11.09 ЮЗ 1 50 км 7 баллов +15.2 +10.4 73 +16 +19 1015.5 1013.3
06 11.09 З 2 50 км 6 баллов +19.0 +8.9 52 +20 +22 1014.1 1012.0
09 11.09 штиль 0 50 км 9 баллов +14.9 +10.9 77 +15 +15 1014.2 1012.0 +19.1
12 11.09 ЮВ 1 50 км 7 баллов +11.8 +11.0 95 +12 +12 1015.5 1013.3
15 11.09 В 1 50 км 4 балла +9.2 +8.7 97 +8 +8 1016.9 1014.7
18 11.09 ЮВ 1 50 км 4 балла +7.5 +7.1 97 +6 +6 1016.9 1014.7
21 11.09 ЮВ 1 20 км в посл. час туман 7 баллов +9.2 +8.9 98 +8 +8 1018.2 1016.0 +7.3
00 12.09 штиль 0 50 км {туман} 9/8 200 м
[St Ac trans]
+13.4 +11.7 89 +13 +14 1018.0 1015.1
03 12.09 ЮЗ 4 50 км 2 балла +17.0 +11.0 68 +17 +22 1018.1 1016.0
06 12.09 ЮЗ 4 50 км 5 баллов +18.9 +9.1 53 +19 +21 1016.8 1014.7
09 12.09 Ю 1 50 км 1 балл +16.3 +11.4 73 +17 +17 1015.4 1013.3 +19.2
12 12.09 ЮВ 1 50 км ясно +9.1 +8.6 97 +8 +8 1016.9 1014.7
15 12.09 ЮВ 2 50 км ясно +7.2 +6.8 97 +5 +5 1016.9 1014.7
00 13.09 ЮЗ 1 50 км {туман} 8/0
[Ac lent Ci fib]
+15.8 +10.9 73 +17 +21 1014.9 1012.1
03 13.09 ЮЗ 5 50 км 7 баллов +20.8 +9.7 49 +22 +24 комфорт 1012.8 1010.7
06 13.09 ЮЗ 4 50 км 4 балла +22.0 +11.1 50 +24 +26 комфорт 1010.1 1008.0
09 13.09 ЮЗ 2 50 км 9 баллов +17.9 +11.0 64 +18 +18 1008.8 1006.7 +22.3
12 13.09 Ю 1 50 км 9 баллов +15.5 +12.1 80 +16 +16 1007.4 1005.3
15 13.09 штиль 0 50 км 10 баллов +12.5 +11.9 96 +12 +12 1004.9 1002.7
18 13.09 С 1 50 км 10 баллов +12.7 +12.2 97 +13 +13 1002.1 1000.0
21 13.09 Ю 3 10 км слаб. ливневой дождь 10 баллов +14.5 +13.5 94 +14 +14 1000.8 998.7 +12.0 4
00 14.09 ЮЗ 3
{11}
50 км в посл. час ливневой дождь 3/3 600 м
[Cb cap Ac lent]
+15.8 +14.3 91 +15 +18 1000.3 997.5
03 14.09 ЮЗ 5 50 км 2 балла +19.8 +11.0 57 +21 +25 комфорт 1000.8 998.7
06 14.09 З 6-11
{15}
50 км 3/3 600 м
[Cb cap]
+21.4 -0.3 23 +21 +22 комфорт 1001.4 998.6
09 14.09 ЮЗ 1 50 км 1 балл +17.5 +1.5 34 +19 +19 1004.8 1002.7 +21.5 6
12 14.09 ЮЗ 2 50 км ясно +14.2 +5.3 55 +14 +14 1007.4 1005.3
15 14.09 ЮВ 2 50 км ясно +6.5 +2.9 78 +4 +4 1008.9 1006.7
18 14.09 ЮВ 2 50 км местами туман поземный 1 балл +2.6 +2.2 97 -1 -1 1010.2 1008.0
21 14.09 В 1 50 км ясно +1.6 +1.3 98 -0 -0 1011.6 1009.3 +0.8
00 15.09 штиль 0 50 км 1 балл +13.4 +8.0 70 +13 +19 1011.5 1009.3
03 15.09 З 2 50 км 2 балла +18.7 +9.5 55 +20 +27 1010.1 1008.0
06 15.09 ЮЗ 3 50 км 5 баллов +21.0 +9.6 48 +23 +25 комфорт 1008.8 1006.7
09 15.09 Ю 2 50 км 5 баллов +17.9 +9.5 58 +18 +18 1008.8 1006.7 +21.2
12 15.09 СВ 1 50 км 2 балла +11.2 +9.6 90 +11 +11 1008.9 1006.7
15 15.09 В 1 50 км 1 балл +8.2 +7.8 97 +7 +7 1008.9 1006.7
18 15.09 В 1 50 км 5 баллов +7.6 +7.2 97 +7 +7 1006.2 1004.0
21 15.09 ЮВ 1 50 км 9 баллов +6.7 +6.3 97 +5 +5 1006.2 1004.0 +6.6
00 16.09 ЮЗ 6-11
{11}
20 км слаб. ливневой дождь 10/8 600 м
[Cb cap Ac As]
+15.3 +10.3 72 +14 +14 1005.9 1003.0
03 16.09 ЮЗ 4 50 км 7 баллов +17.2 +12.1 72 +17 +19 1006.1 1004.0
06 16.09 ЮЗ 5
{12}
50 км {ливн. осадки} 4/4 600 м
[Cb calv]
+18.4 +8.6 53 +18 +20 1004.9 1002.1

 

Местоположение метеостанции Нижнетамбовское (Хабаровский край, Россия): широта 50.92 долгота 138.10 высота над уровнем моря 18 м.

В архиве по умолчанию представлена погода в Нижнетамбовском за последнюю неделю. Архивные данные за месяц целиком и за предыдущие месяцы, начиная с января 2011 года, Вы можете получить, выбрав интересующий диапазон дат из раскрывающегося списка и нажав кнопку "Ввод!".


*Определитесь, кто Вы:
робот инопланетянин человек

Внимание! Время в таблицах - всемирное. Для получения местного времени необходимо прибавить поправку, которая равна 10 ч.

Смотрите также архив погоды в соседних городах и на ближайших метеорологических станциях:

Погода в Сегжеме (Хабаровский край, Россия) (67 км)
Погода в Комсомольске-на-Амуре (Хабаровский край, Россия) (89 км)
Погода в Циммермановка (Хабаровский край, Россия) (89 км)
Погода в Горине (Хабаровский край, Россия) (96 км)
Погода в Амурске (Хабаровский край, Россия) (116 км)
Погода в Мариинском (Хабаровский край, Россия) (166 км)
Погода в Солекуль (Хабаровский край, Россия) (195 км)
Погода в Тумнине (Хабаровский край, Россия) (195 км)
Погода в Троицком (Хабаровский край, Россия) (197 км)
Погода в Им. Полины Осипенко (Хабаровский край, Россия) (200 км)

Пояснения к столбцам:

Ветер - указаны скорость ветра в м/с - средняя за 10 мин, порывы в срок и между сроками (в фигурных скобках) и направление, откуда дует ветер: С - северный, СВ - северо-восточный, В - восточный, ЮВ - юго-восточный, Ю - южный, ЮЗ - юго-западный, З - западный, СЗ - северо-западный.
Видимость - горизонтальная дальность видимости в метрах или километрах. При видимости от 1 до 10 км при отсутствии осадков обычно наблюдается дымка, при ухудшении видимости до 1 км и менее - туман. В сухую погоду видимость может ухудшаться дымом, пылью или мглою.
Явления - указаны атмосферные явления, наблюдавшиеся в срок или в последний час перед сроком; фигурными скобками обозначены явления, наблюдавшиеся между сроками (за 1-3 часа до срока); квадратными скобками обозначены град или гололедные отложения с указанием их диаметра в мм.
Облачность - указаны через наклонную черту общая и нижняя облачность в баллах и высота нижней границы облаков в метрах; квадратными скобками обозначены формы облаков: Ci - перистые, Cs - перисто-слоистые, Cc - перисто-кучевые, Ac - высококучевые, As - высокослоистые, Sc - слоисто-кучевые, Ns - слоисто-дождевые, Cu - кучевые, Cb - кучево-дождевые. Подробнее классификацию облаков см. в Атласе облаков (PDF).
T - Температура воздуха - температура, измеренная на высоте 2 м над землей.
Td - Температура точки росы - температура, при понижении до которой содержащийся в воздухе водяной пар достигнет насыщения.
f - Относительная влажность воздуха - влажноcть воздуха, измеренная на высоте 2 м над землей.
Te - Эффективная температура - температура, которую ощущает одетый по сезону человек в тени. Характеристика душности погоды. При расчете учитывается влияние влажности воздуха и скорости ветра на теплоощущения человека.
Tes - Эффективная температура на солнце - температура, которую ощущает человек, с поправкой на солнечный нагрев. Характеристика знойности погоды. Зависит от высоты солнца над горизонтом, облачности и скорости ветра. Ночью, в пасмурную погоду, а также при ветре 12 м/с и более поправка равна нулю.
P - Атмосферное давление - приведенное к уровню моря атмосферное давление.
Po - Атмосферное давление - измеренное на уровне метеостанции атмосферное давление.
Tmin - Минимальная температура - минимум температуры воздуха на высоте 2 м над землей.
Tmax - Максимальная температура - максимум температуры воздуха на высоте 2 м над землей.
R - Количество осадков - Количество выпавших осадков за период времени, мм. При наведении курсора мыши на число - период времени, за который выпало указанное количество осадков.
R24 - Количество осадков - Количество выпавших осадков за 24 часа, мм.
S - Снежный покров - Высота снежного покрова, см. При наведении курсора мыши на число - состояние снежного покрова и степень покрытия местности в баллах.